Satellite-Ground Cal/Val Region Overpasses Predictions

Prediction of Satellite NPP Overpassing Cal/Val Region: PacNW

Region Location: (Latitude: 10.00, Longitude: 139.50) to (Latitude: 22.70, Longitude: 165.60).

Table of predicted overpasses for the next 14.0 days since TLE Epoch: 5/27/2023
Interval Starting Time Starting Location Ending Time Ending Location
1 05/27/2023 14:36:10 ( 18.14, 165.60) 05/27/2023 14:38:28 ( 10.04, 163.71)
2 05/27/2023 16:16:23 ( 22.65, 141.33) 05/27/2023 16:18:31 ( 15.14, 139.51)
3 05/28/2023 03:25:28 ( 10.06, 148.86) 05/28/2023 03:29:03 ( 22.68, 145.87)
4 05/28/2023 15:57:20 ( 22.70, 146.10) 05/28/2023 16:00:56 ( 10.02, 143.08)
5 05/29/2023 03:06:24 ( 10.01, 153.63) 05/29/2023 03:10:00 ( 22.69, 150.62)
6 05/29/2023 15:38:17 ( 22.69, 150.85) 05/29/2023 15:41:53 ( 10.01, 147.84)
7 05/30/2023 02:47:22 ( 10.02, 158.39) 05/30/2023 02:50:57 ( 22.65, 155.39)
8 05/30/2023 15:19:15 ( 22.67, 155.61) 05/30/2023 15:22:50 ( 10.05, 152.61)
9 05/31/2023 02:28:20 ( 10.04, 163.14) 05/31/2023 02:31:55 ( 22.66, 160.15)
10 05/31/2023 15:00:12 ( 22.66, 160.36) 05/31/2023 15:03:47 ( 10.04, 157.36)
11 06/01/2023 02:12:04 ( 19.86, 165.59) 06/01/2023 02:12:52 ( 22.68, 164.90)
12 06/01/2023 03:50:46 ( 10.01, 142.53) 06/01/2023 03:54:22 ( 22.69, 139.52)
13 06/01/2023 14:41:09 ( 22.70, 165.13) 06/01/2023 14:44:45 ( 10.02, 162.12)
14 06/01/2023 16:22:39 ( 22.69, 139.75) 06/01/2023 16:22:56 ( 21.69, 139.50)
15 06/02/2023 03:31:44 ( 10.02, 147.29) 06/02/2023 03:35:19 ( 22.65, 144.29)
16 06/02/2023 16:03:36 ( 22.67, 144.51) 06/02/2023 16:07:11 ( 10.05, 141.51)
17 06/03/2023 03:12:41 ( 10.04, 152.04) 06/03/2023 03:16:16 ( 22.66, 149.05)
18 06/03/2023 15:44:34 ( 22.66, 149.26) 06/03/2023 15:48:09 ( 10.04, 146.27)
19 06/04/2023 02:53:39 ( 10.06, 156.80) 06/04/2023 02:57:14 ( 22.68, 153.80)
20 06/04/2023 15:25:30 ( 22.70, 154.03) 06/04/2023 15:29:06 ( 10.02, 151.02)
21 06/05/2023 02:34:35 ( 10.02, 161.57) 06/05/2023 02:38:10 ( 22.64, 158.57)
22 06/05/2023 15:06:28 ( 22.68, 158.78) 06/05/2023 15:10:03 ( 10.06, 155.79)
23 06/06/2023 02:16:27 ( 13.21, 165.59) 06/06/2023 02:19:08 ( 22.66, 163.32)
24 06/06/2023 03:57:03 ( 10.05, 140.94) 06/06/2023 03:58:48 ( 16.22, 139.51)
25 06/06/2023 14:47:25 ( 22.66, 163.54) 06/06/2023 14:51:00 ( 10.04, 160.54)
26 06/07/2023 03:37:59 ( 10.01, 145.71) 06/07/2023 03:41:35 ( 22.70, 142.70)
27 06/07/2023 14:31:36 ( 11.31, 165.59) 06/07/2023 14:31:58 ( 10.01, 165.30)
28 06/07/2023 16:09:52 ( 22.68, 142.93) 06/07/2023 16:13:28 ( 10.00, 139.92)
29 06/08/2023 03:18:57 ( 10.04, 150.46) 06/08/2023 03:22:32 ( 22.66, 147.47)
30 06/08/2023 15:50:50 ( 22.66, 147.68) 06/08/2023 15:54:25 ( 10.04, 144.69)
31 06/09/2023 02:59:53 ( 10.00, 155.23) 06/09/2023 03:03:29 ( 22.68, 152.22)
32 06/09/2023 15:31:46 ( 22.70, 152.45) 06/09/2023 15:35:22 ( 10.02, 149.44)
